Stations météo

Publicité
Laval-Etronnier, France (7134): Température de l'air & dewpoint: 12.02.2020 19:00:00 - 18.02.2020 19:00:00 (CET)Laval-Etronnier, France (7134): Température de l'air 5cm: 12.02.2020 19:00:00 - 18.02.2020 19:00:00 (CET)Laval-Etronnier, France (7134): Température de l'air -20cm & Température de l'air -100cm: 12.02.2020 19:00:00 - 18.02.2020 19:00:00 (CET)Laval-Etronnier, France (7134): Vitesse du vent & gusts: 12.02.2020 19:00:00 - 18.02.2020 19:00:00 (CET)Laval-Etronnier, France (7134): Direction du vent: 12.02.2020 19:00:00 - 18.02.2020 19:00:00 (CET)Laval-Etronnier, France (7134): reduced air pressure: 12.02.2020 19:00:00 - 18.02.2020 19:00:00 (CET)Laval-Etronnier, France (7134): visibility: 12.02.2020 19:00:00 - 18.02.2020 19:00:00 (CET)Laval-Etronnier, France (7134): Ensoleillement: 12.02.2020 19:00:00 - 18.02.2020 19:00:00 (CET)Laval-Etronnier, France (7134): Quantités de précipitations: 12.02.2020 19:00:00 - 18.02.2020 19:00:00 (CET)
Date & Time tt [°C] td [°C] tt 5cm [°C] tt -20cm [°C] tt -100cm [°C] ff [km/h] ff [knt] fx [km/h] fx [knt] dd ppp [hPa] vv [km] sd [min] rr [mm]
18.02.2020 19:00:00 8,7 4,9 7,7 8,9 10,0 17 9 32 18 SW 1027,1 20 0 0,0
18.02.2020 18:00:00 9,3 5,3 8,8 8,9 10,0 19 10 34 18 SW 1027,3 20 30 0,0
18.02.2020 17:00:00 10,0 5,4 10,4 8,8 10,0 18 10 36 19 WSW 1027,6 20 26 0,0
18.02.2020 16:00:00 10,5 5,5 11,0 8,7 9,9 20 11 39 21 SW 1027,8 20 47 0,0
18.02.2020 15:00:00 10,7 5,2 10,6 8,5 9,9 18 10 42 23 WSW 1028,1 20 9 0,0
18.02.2020 14:00:00 11,1 4,3 13,5 8,3 9,9 27 15 44 24 WSW 1028,8 20 57 0,0
18.02.2020 13:00:00 10,6 4,7 9,4 8,0 9,9 27 15 42 23 WSW 1029,6 20 39 0,0
18.02.2020 12:00:00 9,1 5,3 10,4 7,8 9,9 21 11 31 17 WSW 1029,8 19 54 0,0
18.02.2020 11:00:00 8,0 5,3 7,5 7,7 10,0 16 8 29 16 SW 1030,3 20 51 0,0
18.02.2020 10:00:00 6,1 4,4 4,6 7,7 9,9 11 6 21 11 SW 1030,2 20 44 0,0
18.02.2020 09:00:00 4,3 3,4 2,7 7,7 10,0 13 7 20 11 SSW 1029,9 20 28 0,0
18.02.2020 08:00:00 3,6 2,9 2,4 7,9 10,0 10 5 21 11 SW 1029,4 20 0 0,0
18.02.2020 07:00:00 3,4 2,5 2,3 7,9 10,0 14 8 21 11 SSW 1028,9 20 0 0,0
18.02.2020 06:00:00 3,6 2,4 2,4 8,0 9,9 11 6 18 10 SSW 1028,9 20 0 0,0
18.02.2020 05:00:00 3,9 2,6 2,9 8,2 9,9 11 6 23 12 SW 1028,9 20 0 0,0
18.02.2020 04:00:00 3,9 2,7 2,7 8,3 10,0 13 7 24 13 SW 1028,6 20 0 0,0
18.02.2020 03:00:00 4,1 2,8 2,9 8,4 9,9 12 7 21 11 SW 1028,9 20 0 0,0
18.02.2020 02:00:00 4,4 2,6 3,2 8,5 9,9 11 6 21 11 SW 1028,6 20 0 0,0
18.02.2020 01:00:00 4,7 2,9 3,5 8,7 9,9 12 7 22 12 SW 1028,2 20 0 0,0
18.02.2020 00:00:00 5,1 3,3 3,7 8,8 9,9 11 6 24 13 SW 1027,9 20 0 0,0
17.02.2020 23:00:00 5,4 3,2 4,3 9,0 9,9 15 8 27 14 WSW 1027,3 20 0 0,0
17.02.2020 22:00:00 5,8 3,5 4,7 9,1 9,9 16 9 29 16 WSW 1026,6 20 0 0,0
17.02.2020 21:00:00 6,2 3,4 4,8 9,3 9,9 13 7 32 17 WSW 1025,8 20 0 0,0
17.02.2020 20:00:00 6,6 3,0 4,9 9,4 9,9 17 9 28 15 WSW 1025,2 20 0 0,0
17.02.2020 19:00:00 6,6 3,7 5,1 9,6 9,9 14 7 54 29 WSW 1024,1 20 0 0,0
17.02.2020 18:00:00 7,5 3,5 6,5 9,7 9,9 26 14 53 29 W 1023,1 20 35 0,0
17.02.2020 17:00:00 9,6 2,0 7,3 9,7 9,9 24 13 52 28 WSW 1021,7 20 26 0,0
17.02.2020 16:00:00 10,9 3,4 11,9 9,7 9,9 27 14 54 29 WSW 1020,8 20 60 0,0
17.02.2020 15:00:00 9,2 4,4 6,9 9,7 9,9 19 10 65 35 W 1020,9 20 30 0,0
17.02.2020 14:00:00 10,7 3,0 10,1 9,6 9,9 32 17 57 31 W 1020,4 20 52 0,0
17.02.2020 13:00:00 9,9 4,5 8,0 9,6 9,8 27 15 56 31 WSW 1020,3 20 41 0,0
17.02.2020 12:00:00 8,9 4,7 7,6 9,5 9,8 24 13 60 32 WSW 1019,8 20 28 0,0
17.02.2020 11:00:00 10,0 5,6 9,8 9,5 9,8 22 12 41 22 SW 1019,1 20 60 0,0
17.02.2020 10:00:00 8,7 5,8 7,6 9,5 9,8 19 10 34 18 SW 1018,3 20 57 0,0
17.02.2020 09:00:00 7,7 6,0 6,3 9,6 9,8 17 9 30 16 SSW 1017,6 20 11 0,0
17.02.2020 08:00:00 7,7 5,5 6,0 9,7 9,8 16 9 45 25 WSW 1016,9 20 0 0,2
17.02.2020 07:00:00 7,8 7,0 6,6 9,8 9,8 13 7 26 14 SSW 1016,4 19 0 0,0
17.02.2020 06:00:00 8,4 7,2 7,4 9,9 9,8 15 8 26 14 SSW 1016,2 20 0 0,0
17.02.2020 05:00:00 8,5 7,7 7,9 9,9 9,8 14 7 27 15 SSW 1016,0 20 0 0,0
17.02.2020 04:00:00 8,7 7,8 7,7 10,0 9,8 14 8 26 14 SSW 1016,2 20 0 0,0
17.02.2020 03:00:00 8,4 7,3 7,3 10,1 9,8 13 7 29 16 SSW 1016,3 20 0 0,0
17.02.2020 02:00:00 8,6 7,4 7,6 10,2 9,8 17 9 31 17 SW 1016,2 20 0 0,0
17.02.2020 01:00:00 8,4 7,3 7,6 10,3 9,8 15 8 36 20 SW 1016,2 20 0 0,0
17.02.2020 00:00:00 8,5 7,4 7,7 10,4 9,8 18 10 36 19 SW 1015,8 20 0 0,0
16.02.2020 23:00:00 8,5 7,1 7,7 10,6 9,7 19 11 36 20 SW 1015,0 20 0 0,0
16.02.2020 22:00:00 8,6 7,5 7,7 10,7 9,7 20 11 32 18 SW 1014,3 20 0 0,0
16.02.2020 21:00:00 8,6 7,2 7,8 10,9 9,7 20 11 46 25 WSW 1013,3 20 0 0,6
16.02.2020 20:00:00 8,9 7,7 8,0 11,1 9,7 25 14 49 27 W 1012,6 18 0 0,6
16.02.2020 19:00:00 9,6 7,4 8,3 11,2 9,7 36 19 70 38 W 1011,3 10 0 1,2
16.02.2020 18:00:00 13,5 12,7 12,8 11,2 9,7 35 19 85 46 SW 1008,3 2,4 0 0,6
16.02.2020 17:00:00 14,7 12,0 13,3 11,1 9,7 40 22 92 50 SW 1007,4 20 0 0,0
16.02.2020 16:00:00 15,7 11,5 14,8 11,0 9,7 52 28 120 65 SW 1007,0 17 0 0,0
16.02.2020 15:00:00 16,1 11,3 15,5 10,9 9,7 56 30 98 53 SW 1006,7 20 0 0,0
16.02.2020 14:00:00 16,4 11,3 16,1 10,8 9,7 50 27 109 59 SW 1006,8 20 2 0,0
16.02.2020 13:00:00 16,1 11,7 15,5 10,6 9,7 48 26 93 50 SW 1007,2 20 0 0,0
16.02.2020 12:00:00 15,5 11,5 15,0 10,5 9,7 46 25 82 44 SW 1007,9 20 0 0,0
16.02.2020 11:00:00 15,1 11,3 14,3 10,4 9,7 40 22 82 44 SW 1008,1 20 0 0,0
16.02.2020 10:00:00 14,7 11,1 14,1 10,3 9,6 42 23 81 44 SW 1008,0 20 0 0,0
16.02.2020 09:00:00 14,7 10,9 13,8 10,3 9,6 43 23 76 41 SSW 1008,2 20 0 0,0
16.02.2020 08:00:00 14,6 10,6 12,4 10,2 9,6 39 21 79 43 SSW 1008,5 20 0 0,0
16.02.2020 07:00:00 14,4 10,8 12,0 10,1 9,6 44 24 87 47 SSW 1009,2 20 0 0,2
16.02.2020 06:00:00 14,4 10,8 11,5 10,1 9,6 39 21 76 41 SSW 1009,7 20 0 0,2
16.02.2020 05:00:00 13,4 10,7 11,1 10,0 9,6 41 22 77 42 SSW 1010,4 19 0 0,4
16.02.2020 04:00:00 12,7 10,6 11,1 10,0 9,6 40 22 78 42 SSW 1011,2 19 0 0,8
16.02.2020 03:00:00 12,3 11,2 11,2 9,9 9,6 38 20 66 35 SSW 1011,9 12 0 1,6
16.02.2020 02:00:00 12,0 11,1 10,9 9,8 9,6 37 20 59 32 SSW 1012,3 8 0 1,4
16.02.2020 01:00:00 11,8 10,5 10,9 9,8 9,6 35 19 59 32 SSW 1012,6 14 0 0,6
16.02.2020 00:00:00 12,0 10,6 10,8 9,8 9,6 34 18 61 33 SSW 1013,2 18 0 0,4
15.02.2020 23:00:00 12,2 9,9 10,7 9,7 9,6 33 18 67 36 SSW 1013,7 20 0 0,0
15.02.2020 22:00:00 12,4 9,0 10,1 9,7 9,6 34 18 62 33 SSW 1014,1 20 0 0,0
15.02.2020 21:00:00 11,4 9,1 9,9 9,7 9,6 32 18 51 28 SSW 1014,5 19 0 0,2
15.02.2020 20:00:00 12,3 8,8 11,6 9,7 9,6 33 18 53 29 SSW 1014,9 20 0 0,0
15.02.2020 19:00:00 12,1 9,1 10,5 9,7 9,6 27 14 48 26 S 1014,9 20 0 0,0
15.02.2020 18:00:00 12,3 9,3 11,7 9,7 9,6 29 16 60 33 SSW 1015,1 20 0 0,0
15.02.2020 17:00:00 13,0 8,7 12,4 9,6 9,6 32 17 61 33 SSW 1015,1 20 0 0,0
15.02.2020 16:00:00 13,3 9,0 12,7 9,6 9,6 30 16 52 28 SSW 1015,3 20 0 0,0
15.02.2020 15:00:00 13,1 9,0 12,8 9,5 9,6 25 14 42 23 SSW 1016,1 20 0 0,0
15.02.2020 14:00:00 12,9 8,6 12,9 9,4 9,6 27 15 55 30 SSW 1016,7 20 0 0,0
15.02.2020 13:00:00 12,5 8,6 12,2 9,2 9,6 29 16 52 28 S 1016,9 20 11 0,0
15.02.2020 12:00:00 11,6 8,3 11,7 9,1 9,6 29 15 52 28 SSW 1018,2 20 17 0,0
15.02.2020 11:00:00 11,3 8,3 11,3 9,0 9,6 31 17 49 26 S 1018,7 20 34 0,0
15.02.2020 10:00:00 10,5 8,3 9,6 9,0 9,6 23 12 37 20 S 1019,3 20 7 0,0
15.02.2020 09:00:00 9,7 8,3 9,1 9,0 9,6 20 11 32 17 S 1020,0 20 0 0,0
15.02.2020 08:00:00 9,4 8,3 9,0 9,0 9,5 19 10 40 21 S 1019,8 20 0 0,0
15.02.2020 07:00:00 9,4 8,6 9,1 9,0 9,5 16 9 29 15 S 1020,2 17 0 0,0
15.02.2020 06:00:00 9,7 8,8 9,2 9,0 9,6 16 9 29 16 S 1020,4 16 0 0,0
15.02.2020 05:00:00 10,0 9,2 9,7 8,9 9,5 16 9 26 14 S 1020,9 14 0 0,0
15.02.2020 04:00:00 9,9 9,3 9,6 8,9 9,5 18 10 30 16 S 1021,2 11 0 0,0
15.02.2020 03:00:00 9,8 9,3 9,3 8,9 9,5 19 10 31 17 S 1021,5 8 0 0,0
15.02.2020 02:00:00 9,5 9,2 8,6 8,9 9,5 19 10 27 14 S 1021,6 6 0 0,0
15.02.2020 01:00:00 8,7 8,2 7,9 8,9 9,5 14 8 22 12 S 1022,1 9 0 0,0
15.02.2020 00:00:00 8,6 7,5 7,7 8,9 9,6 8 4 19 10 S 1022,7 12 0 0,0
14.02.2020 23:00:00 8,8 7,4 7,9 9,0 9,5 14 8 23 13 S 1023,0 13 0 0,0
14.02.2020 22:00:00 9,0 7,1 8,0 9,0 9,5 12 7 20 11 S 1023,2 15 0 0,0
14.02.2020 21:00:00 9,3 7,1 8,5 9,1 9,5 14 7 25 13 S 1023,4 15 0 0,0
14.02.2020 20:00:00 9,9 7,0 8,8 9,2 9,5 18 10 25 14 S 1023,6 15 0 0,0
14.02.2020 19:00:00 10,3 7,0 8,8 9,2 9,5 13 7 24 13 S 1023,7 16 0 0,0
14.02.2020 18:00:00 11,4 6,7 10,5 9,2 9,5 12 7 30 16 SW 1023,5 17 31 0,0
14.02.2020 17:00:00 12,1 7,0 12,0 9,2 9,5 16 9 39 21 SW 1023,3 16 3 0,0
14.02.2020 16:00:00 12,3 7,0 12,5 9,1 9,6 23 12 37 20 SSW 1022,9 17 32 0,0
14.02.2020 15:00:00 12,2 6,5 12,0 8,9 9,5 25 13 40 21 SSW 1023,4 17 12 0,0
14.02.2020 14:00:00 11,7 6,6 12,3 8,7 9,5 23 12 41 22 SSW 1023,8 15 42 0,0
14.02.2020 13:00:00 11,2 6,7 12,3 8,5 9,5 22 12 32 18 SSW 1024,3 17 39 0,0
14.02.2020 12:00:00 11,3 7,4 11,4 8,2 9,5 13 7 26 14 SW 1024,6 13 53 0,0
14.02.2020 11:00:00 9,6 7,7 8,5 8,1 9,5 10 5 17 9 S 1024,3 11 39 0,0
14.02.2020 10:00:00 7,6 6,7 6,1 8,1 9,5 9 5 13 7 S 1024,4 10 26 0,0
14.02.2020 09:00:00 6,4 5,7 5,1 8,2 9,5 7 4 13 7 SW 1024,0 11 13 0,0
14.02.2020 08:00:00 6,8 5,6 5,6 8,2 9,5 10 5 20 11 WSW 1022,8 13 0 0,0
14.02.2020 07:00:00 7,8 5,9 6,8 8,3 9,5 13 7 20 11 WSW 1022,4 14 0 0,0
14.02.2020 06:00:00 8,4 5,9 7,7 8,3 9,5 16 8 26 14 W 1021,2 18 0 0,0
14.02.2020 05:00:00 8,8 5,4 8,0 8,3 9,5 16 9 32 17 WSW 1020,5 20 0 0,0
14.02.2020 04:00:00 8,9 5,8 8,2 8,4 9,5 13 7 24 13 WSW 1020,1 20 0 0,0
14.02.2020 03:00:00 8,9 6,2 8,3 8,4 9,5 14 7 23 12 W 1019,8 20 0 0,0
14.02.2020 02:00:00 8,9 6,3 8,4 8,4 9,5 13 7 27 15 WSW 1019,3 20 0 0,0
14.02.2020 01:00:00 9,0 6,3 8,4 8,4 9,6 18 10 32 18 WSW 1018,4 20 0 0,0
14.02.2020 00:00:00 9,0 6,4 8,0 8,4 9,5 18 10 37 20 WSW 1017,7 20 0 0,0
13.02.2020 23:00:00 8,9 6,5 7,7 8,4 9,5 21 11 48 26 WSW 1017,1 20 0 0,0
13.02.2020 22:00:00 9,3 6,4 7,8 8,5 9,6 24 13 42 23 W 1015,6 20 0 0,0
13.02.2020 21:00:00 9,2 6,6 7,6 8,5 9,5 22 12 38 20 W 1014,2 20 0 0,0
13.02.2020 20:00:00 9,2 6,8 7,8 8,5 9,5 29 15 48 26 W 1012,7 11 0 0,0
13.02.2020 19:00:00 9,6 6,5 8,0 8,5 9,5 29 16 53 29 W 1010,8 20 0 0,0
13.02.2020 18:00:00 10,3 6,4 8,8 8,5 9,5 35 19 61 33 W 1008,5 20 2 0,0
13.02.2020 17:00:00 10,7 6,8 8,6 8,5 9,6 34 18 72 39 W 1006,9 20 0 0,2
13.02.2020 16:00:00 10,3 7,0 8,5 8,4 9,5 36 20 74 40 W 1005,4 7 0 0,2
13.02.2020 15:00:00 10,5 6,4 8,5 8,4 9,5 37 20 76 41 WSW 1004,3 17 0 0,0
13.02.2020 14:00:00 11,2 4,6 8,8 8,3 9,6 48 26 81 44 WSW 1004,3 18 34 0,0
13.02.2020 13:00:00 9,8 6,0 7,1 8,2 9,5 29 16 92 50 WSW 1004,6 14 10 1,0
13.02.2020 12:00:00 9,9 5,5 8,5 8,1 9,5 32 17 65 35 WSW 1005,1 11 20 0,0
13.02.2020 11:00:00 10,7 6,3 10,2 8,0 9,6 32 17 54 29 WSW 1004,8 10 60 0,0
13.02.2020 10:00:00 10,1 6,6 8,3 7,8 9,5 22 12 54 29 WSW 1004,7 13 19 0,0
13.02.2020 09:00:00 10,4 6,2 8,5 7,7 9,6 32 17 66 36 W 1004,5 20 4 0,0
13.02.2020 08:00:00 11,4 10,0 8,6 7,6 9,6 35 19 66 36 SW 1002,9 20 0 0,2
13.02.2020 07:00:00 8,9 8,6 7,5 7,5 9,6 32 17 61 33 S 1004,0 10 0 0,4
13.02.2020 06:00:00 7,9 7,5 6,0 7,5 9,6 35 19 53 29 S 1005,6 5 0 0,2
13.02.2020 05:00:00 6,8 5,6 5,7 7,4 9,6 25 13 39 21 S 1007,7 18 0 0,2
13.02.2020 04:00:00 6,6 5,1 5,7 7,5 9,6 25 14 42 23 S 1009,5 20 0 0,0
13.02.2020 03:00:00 6,7 5,3 6,3 7,5 9,6 23 12 36 19 S 1011,7 20 0 0,0
13.02.2020 02:00:00 6,6 5,5 5,6 7,5 9,6 21 11 33 18 SSE 1013,3 20 0 0,0
13.02.2020 01:00:00 6,1 5,2 5,2 7,5 9,6 18 10 32 17 S 1015,2 20 0 0,0
13.02.2020 00:00:00 5,8 4,6 4,6 7,6 9,6 16 8 24 13 S 1016,4 20 0 0,0
12.02.2020 23:00:00 5,8 4,3 4,5 7,7 9,6 14 8 22 12 S 1017,8 20 0 0,0
12.02.2020 22:00:00 5,5 4,0 4,3 7,8 9,6 13 7 18 10 S 1018,2 20 0 0,0
12.02.2020 21:00:00 5,8 4,1 4,3 7,9 9,6 12 7 16 9 S 1019,2 20 0 0,0
12.02.2020 20:00:00 6,4 4,7 5,2 8,0 9,6 11 6 20 11 S 1019,8 20 0 0,0
12.02.2020 19:00:00 7,5 5,1 6,7 8,0 9,6 11 6 19 10 S 1019,9 20 0 0,0

tt = Température de l'air
td = dewpoint
tt 5cm = Température de l'air 5cm
tt -20cm = Température de l'air -20cm
tt -100cm = Température de l'air -100cm
ff = Vitesse du vent
fx = gusts
dd = Direction du vent
ppp = reduced air pressure
vv = visibility
sd = Ensoleillement
rr = Quantités de précipitations

stations d'obs. à proximité